www.pogodaiklimat.ru

Погода и климат >> Архив погоды >> Иран >> Khark


ПОГОДА в Khark

  • Прогноз погоды в Khark
  • Монитор погоды в Khark
  • Климат города

АРХИВ ПОГОДЫ в Khark

Время (UTC), дата Ветер
(напр.,м/с)
 
Видим.   Явления Облачность Т
(С)
Тd
(С)
f
(%)
Тe
(С)
Тes
(С)
Комфортность P
(гПа)
Po
(гПа)
Тmin
(С)
Tmax
(С)
R
(мм)
R24
(мм)
S
(см)
12 12.12 З 7 10 км ясно +20.8 +13.2 62 +23 +24 комфорт 1019.5 1019.0
15 12.12 СЗ 6 10 км ясно +19.7 +13.5 67 +21 +21 комфорт 1020.0 1019.5 +20.8
03 13.12 СЗ 5 10 км ясно +18.4 +13.4 73 +19 +19 1021.1 1020.6 +17.9
06 13.12 СЗ 3 10 км ясно +20.4 +14.6 69 +23 +27 комфорт 1022.9 1022.4
09 13.12 З 3 10 км ясно +21.5 +13.8 62 +24 +31 комфорт 1021.9 1021.4
12 13.12 З 5 10 км ясно +21.6 +12.8 57 +24 +25 комфорт 1020.5 1020.0
15 13.12 СЗ 5 10 км ясно +19.7 +14.5 72 +21 +21 комфорт 1021.5 1021.0 +21.9
03 14.12 СЗ 6 10 км ясно +19.2 +13.7 70 +20 +20 1022.6 1022.1 +14.3
06 14.12 СЗ 4 10 км ясно +21.2 +14.6 66 +24 +27 комфорт 1023.8 1023.3
09 14.12 З 4 10 км ясно +22.3 +14.9 63 +26 +31 жарко 1022.3 1021.8
12 14.12 З 8 10 км ясно +22.4 +12.3 53 +25 +25 комфорт 1021.1 1020.6
15 14.12 З 8 10 км ясно +22.3 +15.5 65 +26 +26 жарко 1022.1 1021.6 +22.9
03 15.12 З 8 10 км ясно +19.4 +16.6 84 +21 +21 комфорт 1022.7 1022.2 +19.1
06 15.12 СЗ 8 10 км ясно +20.2 +15.7 75 +22 +23 комфорт 1024.5 1024.0
12 15.12 З 8 10 км ясно +20.7 +14.4 67 +23 +23 комфорт 1021.7 1021.2
15 15.12 З 8 10 км ясно +20.0 +14.0 68 +21 +21 комфорт 1022.9 1022.4 +20.9
03 16.12 СЗ 6 10 км ясно +17.3 +13.8 80 +16 +16 1024.1 1023.6 +17.3
06 16.12 СЗ 6 10 км 1/1 600 м
[St]
+18.2 +14.7 80 +18 +19 1026.3 1025.8
09 16.12 З 4 10 км ясно +19.2 +14.5 74 +21 +26 комфорт 1024.8 1024.3
12 16.12 З 5 10 км ясно +19.6 +12.6 64 +21 +22 комфорт 1023.4 1022.9
15 16.12 З 5 10 км ясно +18.2 +13.1 72 +18 +18 1024.3 1023.8 +19.8
06 17.12 СВ 2 10 км ясно +20.5 +15.5 73 +24 +28 комфорт 1023.6 1023.1
09 17.12 СВ 2 10 км ясно +20.8 +15.0 69 +24 +33 комфорт 1022.4 1021.9
12 17.12 СВ 2 10 км ясно +21.9 +14.1 61 +25 +27 комфорт 1020.7 1020.2
15 17.12 штиль 0 10 км ясно +18.7 +12.7 68 +19 +19 1021.0 1020.5 +22.3
03 18.12 В 4 10 км 8/4 1050 м
[Sc Ac As]
+19.1 +16.0 82 +21 +21 комфорт 1021.8 1021.3 +14.2
06 18.12 В 4 12 км 9/4 1050 м
[Sc Ac As]
+19.0 +14.2 74 +20 +21 1024.8 1024.3
09 18.12 СВ 6 12 км {дождь} 3/0
[Ac As]
+19.9 +16.0 78 +22 +24 комфорт 1021.9 1021.4
12 18.12 ЮВ 2 12 км {дождь} 1/0
[Ac As]
+22.7 +15.8 65 +27 +29 душно 1020.7 1020.2 3
15 18.12 штиль 0 10 км ясно +18.3 +15.9 86 +19 +19 1021.6 1021.1 +22.7
03 19.12 СЗ 5 10 км ясно +18.9 +16.7 87 +20 +20 1022.1 1021.6 +18.1
06 19.12 З 6 12 км ясно +19.8 +16.1 79 +22 +23 комфорт 1024.3 1023.8

 

Местоположение метеостанции Khark (Иран): широта 29.26 долгота 50.32 высота над уровнем моря 3 м.

В архиве по умолчанию представлена погода в Khark за последнюю неделю. Архивные данные за месяц целиком и за предыдущие месяцы, начиная с января 2011 года, Вы можете получить, выбрав интересующий диапазон дат из раскрывающегося списка и нажав кнопку "Ввод!".


*Определитесь, кто Вы:
робот инопланетянин человек

Внимание! Время в таблицах - всемирное. Для получения местного времени необходимо прибавить поправку, которая в Khark равна 3.5 ч.

Смотрите также архив погоды в соседних городах и на ближайших метеорологических станциях:

Погода в Bushehr Airport (Иран) (59 км)
Погода в Bushehr (Иран) (62 км)
Погода в Gach Saran (Иран) (137 км)
Погода в Nuwasib (Кувейт) (175 км)
Погода в Umm-Al-Maradim (Кувейт) (175 км)
Погода в Omidieh (Иран) (179 км)
Погода в Fao (Ирак) (193 км)
Погода в Bubiyan (Кувейт) (196 км)
Погода в Yasuj (Иран) (198 км)
Погода в Failaka Island (Кувейт) (199 км)

Пояснения к столбцам:

Ветер - указаны скорость ветра в м/с - средняя за 10 мин, порывы в срок и между сроками (в фигурных скобках) и направление, откуда дует ветер: С - северный, СВ - северо-восточный, В - восточный, ЮВ - юго-восточный, Ю - южный, ЮЗ - юго-западный, З - западный, СЗ - северо-западный.
Видимость - горизонтальная дальность видимости в метрах или километрах. При видимости от 1 до 10 км при отсутствии осадков обычно наблюдается дымка, при ухудшении видимости до 1 км и менее - туман. В сухую погоду видимость может ухудшаться дымом, пылью или мглою.
Явления - указаны атмосферные явления, наблюдавшиеся в срок или в последний час перед сроком; фигурными скобками обозначены явления, наблюдавшиеся между сроками (за 1-3 часа до срока); квадратными скобками обозначены град или гололедные отложения с указанием их диаметра в мм.
Облачность - указаны через наклонную черту общая и нижняя облачность в баллах и высота нижней границы облаков в метрах; квадратными скобками обозначены формы облаков: Ci - перистые, Cs - перисто-слоистые, Cc - перисто-кучевые, Ac - высококучевые, As - высокослоистые, Sc - слоисто-кучевые, Ns - слоисто-дождевые, Cu - кучевые, Cb - кучево-дождевые. Подробнее классификацию облаков см. в Атласе облаков (PDF).
T - Температура воздуха - температура, измеренная на высоте 2 м над землей.
Td - Температура точки росы - температура, при понижении до которой содержащийся в воздухе водяной пар достигнет насыщения.
f - Относительная влажность воздуха - влажноcть воздуха, измеренная на высоте 2 м над землей.
Te - Эффективная температура - температура, которую ощущает одетый по сезону человек в тени. Характеристика душности погоды. При расчете учитывается влияние влажности воздуха и скорости ветра на теплоощущения человека.
Tes - Эффективная температура на солнце - температура, которую ощущает человек, с поправкой на солнечный нагрев. Характеристика знойности погоды. Зависит от высоты солнца над горизонтом, облачности и скорости ветра. Ночью, в пасмурную погоду, а также при ветре 12 м/с и более поправка равна нулю.
P - Атмосферное давление - приведенное к уровню моря атмосферное давление.
Po - Атмосферное давление - измеренное на уровне метеостанции атмосферное давление.
Tmin - Минимальная температура - минимум температуры воздуха на высоте 2 м над землей.
Tmax - Максимальная температура - максимум температуры воздуха на высоте 2 м над землей.
R - Количество осадков - Количество выпавших осадков за период времени, мм. При наведении курсора мыши на число - период времени, за который выпало указанное количество осадков.
R24 - Количество осадков - Количество выпавших осадков за 24 часа, мм.
S - Снежный покров - Высота снежного покрова, см. При наведении курсора мыши на число - состояние снежного покрова и степень покрытия местности в баллах.